Simultaneous Nadir Overpasses (SNOs) Predictions

Prediction of SNOs between AQUA and NOAA-19 Satellite Orbit:

Table of predicted SNOs for the next 14.0 days since TLE Epoch: 11/17/2016
Index Date (AQUA) Time (AQUA) Lat,Lon (AQUA) SZA (AQUA ) Date (NOAA-19) Time (NOAA-19) Lat,Lon (NOAA-19) SZA (NOAA-19 ) Distance(km) Time Diff (sec)
1 11/18/2016 06:54:05 80.95, 35.87 101.99 11/18/2016 06:53:08 80.94, 36.00 101.99 2.46 57
2 11/18/2016 07:43:31 -80.94,-156.29 78.04 11/18/2016 07:44:03 -80.93,-156.22 78.06 1.28 32
3 11/20/2016 12:27:50 -80.95, 132.45 77.50 11/20/2016 12:27:01 -80.94, 132.55 77.50 1.94 49
4 11/20/2016 13:17:16 80.94, -59.75 102.49 11/20/2016 13:18:05 80.94, -59.82 102.47 1.23 49
5 11/22/2016 18:01:34 80.93,-130.73 102.96 11/22/2016 18:01:02 80.94,-130.86 102.99 2.59 32
6 11/22/2016 18:51:01 -80.94, 36.81 77.03 11/22/2016 18:51:58 -80.94, 36.86 77.05 0.84 57
7 11/24/2016 23:35:19 -80.93, -34.18 76.58 11/24/2016 23:34:55 -80.94, -34.04 76.58 2.54 24
8 11/25/2016 00:24:45 80.93, 133.56 103.41 11/25/2016 00:25:58 80.93, 133.62 103.39 1.24 73
9 11/27/2016 05:09:04 80.95, 62.15 103.89 11/27/2016 05:08:56 80.95, 62.13 103.89 0.72 8
10 11/29/2016 10:42:48 -80.93, 159.01 75.76 11/29/2016 10:42:50 -80.94, 158.91 75.74 2.29 2




NCC Satellite Simultaneous Nadir Overpasses (SNOs) Prediction Service
